Wetbulb
37.94 33.96 30.05 33.92 37.21 37.90 38.64 36.46 35.64 39.79 40.14 38.53 39.60 39.75 47.45 50.84 51.88 49.71 48.73 47.53 47.01 46.88 46.32 48.00 49.47 50.53 50.84 52.30 56.29 54.08 51.67 49.67 48.88 47.47 46.18 45.66 43.91 43.96 43.47 43.13 42.26 42.16 42.46 42.55
31.86 28.85 35.28 38.51 38.17 37.13 36.97 35.05 33.79 35.77 39.49 37.75 36.81 36.44 39.79 48.60 49.99 49.65 48.46 47.76 46.95 44.38 45.03 46.30 48.46 48.20 48.11 48.64 53.24 52.01 49.90 48.91 48.84 48.20 45.41 45.13 43.83 42.68 42.06 41.51 40.81 41.04 41.17 41.20
29.92 32.45 37.20 37.46 35.25 34.70 34.81 34.51 33.19 33.59 35.68 37.83 35.76 35.42 39.93 46.86 49.28 49.39 49.13 48.74 46.72 44.43 43.47 44.87 46.01 45.60 46.16 46.96 50.25 49.43 48.74 48.72 46.99 46.20 45.14 43.80 43.07 42.21 40.57 39.92 38.97 39.60 40.14 40.05
31.77 36.14 34.15 33.52 33.73 35.26 31.39 37.37 36.72 34.06 33.10 30.30 35.64 27.52 33.40 38.13 45.42 46.58 47.02 46.48 44.03 44.26 44.58 45.22 43.39 43.16 43.95 44.05 46.52 46.08 45.50 45.17 45.42 45.49 43.82 42.66 40.68 39.11 39.83 38.72 38.08 38.03 38.80 38.34
29.24 32.71 31.75 31.25 33.36 36.08 33.25 38.73 37.80 35.70 32.82 31.63 31.33 30.17 34.19 39.99 37.87 44.74 46.13 45.96 44.02 44.03 43.49 43.71 42.24 42.00 42.28 42.80 44.40 45.47 45.61 45.81 46.01 45.22 45.84 43.85 40.45 39.77 39.48 38.11 37.02 36.95 37.06 37.46
32.13 37.31 35.97 33.98 36.46 37.01 38.51 35.51 35.66 35.20 33.13 26.16 31.09 30.73 30.78 37.80 39.16 42.07 45.93 45.22 43.84 42.82 42.62 41.34 40.59 41.21 40.66 41.62 42.57 44.20 44.46 44.90 45.28 44.68 43.89 41.85 39.80 38.97 37.28 37.20 36.47 36.02 36.10 35.76
29.14 30.12 35.79 37.65 33.88 35.93 36.31 33.46 25.33 24.06 24.24 22.34 32.61 30.14 31.57 40.83 43.09 44.04 43.18 42.69 41.24 41.03 39.64 38.35 38.03 38.68 39.69 40.12 40.98 42.00 42.00 41.36 43.02 43.30 42.09 41.32 40.09 39.48 37.76 36.91 36.14 35.23 34.35 33.93
18.63 16.50 31.79 37.20 33.18 30.42 33.00 33.25 26.95 20.60 21.79 24.70 32.65 27.22 32.64 40.46 43.69 44.79 45.19 44.21 41.47 40.38 40.17 39.48 39.34 38.91 39.27 39.57 40.47 41.03 40.81 40.33 40.79 40.31 39.13 39.47 39.14 38.80 37.90 37.11 35.98 34.64 34.30 33.58
21.97 21.17 31.89 35.62 36.27 36.03 29.36 27.75 33.45 28.16 29.54 27.74 30.61 33.97 38.54 38.75 41.87 43.99 43.57 40.46 39.45 39.81 40.19 40.32 40.52 40.18 39.93 39.97 39.81 39.62 39.36 39.39 39.04 38.63 37.86 37.12 37.06 36.17 35.28 35.08 34.94 33.95 34.22 35.13
30.00 22.02 29.95 33.25 37.39 37.62 32.54 35.08 25.35 29.10 22.54 20.75 27.09 29.61 30.41 33.81 38.18 41.26 40.92 37.43 38.46 39.70 39.43 39.23 39.12 38.92 39.26 39.20 38.83 38.50 38.40 37.63 37.61 37.28 36.94 36.15 35.62 35.38 34.76 34.07 33.23 32.66 32.93 33.47
31.50 27.47 25.31 32.91 31.73 31.45 29.89 27.62 30.94 31.99 29.74 24.48 23.02 26.99 33.02 35.58 39.94 39.53 39.85 39.17 38.64 38.69 38.45 38.34 38.53 38.57 37.09 36.55 36.35 36.04 35.95 35.47 35.28 35.30 35.13 34.79 34.36 34.33 34.35 33.25 32.80 32.56 32.55 32.02
31.51 29.91 16.26 24.17 32.97 37.00 35.03 30.22 30.83 21.74 21.41 28.01 26.89 27.39 33.36 34.15 35.34 41.51 39.43 38.53 37.15 37.67 38.09 38.65 37.84 36.08 35.68 35.17 34.79 34.52 34.38 34.19 34.35 34.63 34.39 34.04 33.74 33.47 32.76 32.20 32.20 32.09 30.82 30.98
32.31 28.02 8.59 15.12 25.17 33.67 31.47 32.48 33.06 32.12 30.27 26.41 24.37 26.63 33.83 34.80 37.86 40.43 39.21 37.29 37.43 37.99 38.06 37.11 35.33 35.03 35.04 34.84 34.40 33.61 33.74 33.83 34.16 34.08 33.11 32.64 32.18 31.93 31.46 30.87 31.10 30.97 30.13 29.32
34.84 30.53 20.90 14.26 23.94 28.81 26.80 29.02 31.37 30.73 22.54 25.78 26.69 28.77 31.49 33.39 35.77 38.22 38.93 38.24 38.50 38.89 37.89 36.06 34.94 34.75 34.53 34.41 33.48 33.23 33.09 33.33 33.18 32.80 32.34 31.42 31.27 31.22 30.46 30.31 30.11 29.58 28.89 27.83
28.93 23.00 27.39 24.51 28.53 29.54 28.51 28.63 30.59 27.80 28.81 27.22 28.86 31.59 31.94 33.09 35.59 36.16 38.99 38.93 38.05 36.33 35.75 35.18 34.16 34.37 34.03 33.79 33.04 33.10 32.73 32.71 32.99 31.99 31.49 30.89 30.82 30.69 30.38 29.19 28.53 27.82 27.35 26.59
28.24 19.58 26.20 20.73 26.07 27.85 27.27 29.70 30.69 29.66 29.80 30.43 31.65 30.67 35.05 34.67 36.07 35.27 35.86 35.34 34.07 34.22 34.77 34.35 33.92 33.51 33.10 32.68 32.63 32.84 32.15 32.10 32.49 31.44 30.70 30.87 30.37 29.37 28.67 28.02 27.62 26.79 26.17 25.47
24.97 23.17 23.42 16.53 25.64 25.70 18.49 23.52 27.95 28.11 31.31 32.34 28.92 33.34 34.11 32.85 34.91 35.05 34.45 35.39 34.64 34.43 34.14 33.45 33.06 33.15 32.99 32.85 33.09 32.40 32.54 32.47 31.45 30.68 30.92 29.79 28.87 27.78 27.55 27.32 26.70 25.93 25.04 24.60
22.72 22.29 24.95 20.81 20.21 9.86 23.20 26.53 26.98 27.86 30.08 32.17 34.02 34.67 35.35 34.56 34.94 35.81 36.13 35.22 35.05 34.92 34.52 33.96 33.70 33.18 33.21 32.97 33.27 33.71 32.65 30.94 29.78 29.96 29.40 28.66 27.89 27.15 26.83 26.40 25.84 25.13 24.66 23.89
28.15 25.36 21.76 11.28 6.75 17.91 26.48 24.84 25.38 26.12 28.27 31.96 33.41 33.12 31.28 32.47 32.01 32.48 36.07 36.43 36.17 35.74 35.40 35.02 34.80 33.91 33.23 33.20 32.74 31.01 29.91 29.43 29.42 29.17 29.17 28.38 27.01 26.59 25.94 25.41 24.80 24.38 24.06 23.87
27.03 28.15 20.28 11.16 8.69 13.80 25.51 27.92 28.19 27.64 20.40 27.34 30.92 32.38 31.13 31.11 29.42 31.48 33.19 36.06 35.63 35.42 34.84 33.07 32.97 32.68 32.23 29.95 30.47 30.44 29.26 29.30 29.26 29.05 28.48 27.63 26.95 26.66 25.50 25.08 24.35 23.91 24.14 25.33
8.55 8.98 18.77 16.42 18.69 18.71 27.25 28.82 29.59 17.65 23.04 26.71 28.81 32.14 31.01 31.53 31.89 31.52 32.90 34.16 35.48 33.99 32.60 32.24 32.25 31.42 31.36 30.10 30.58 29.75 27.93 27.96 28.63 28.22 27.94 27.10 26.34 25.34 25.08 23.99 22.14 21.88 22.01 23.97
13.75 16.13 14.46 9.35 14.18 16.03 26.30 28.20 26.86 29.75 27.18 26.94 28.93 31.47 29.00 30.17 30.42 31.41 32.72 32.57 32.53 31.94 31.09 30.45 29.93 29.17 28.64 28.87 29.96 28.01 28.02 28.79 27.73 27.16 26.38 24.80 23.04 24.52 24.16 21.23 19.85 19.11 19.73 18.17
10.09 19.79 16.85 19.28 20.42 28.34 28.23 30.82 30.94 29.04 27.44 27.10 26.69 28.24 31.20 29.76 28.39 29.18 31.38 31.05 30.55 30.30 29.93 29.76 30.01 28.84 28.32 29.03 30.09 28.39 28.18 27.39 26.26 23.76 22.73 21.77 20.89 22.32 22.25 19.34 18.59 16.62 15.83 16.98
18.42 21.09 17.30 19.63 22.44 24.78 27.75 28.52 29.80 30.20 28.86 28.94 27.61 27.55 29.31 29.69 29.11 28.25 30.25 29.96 29.80 29.70 29.33 28.65 27.76 27.50 26.92 26.48 26.88 26.72 27.26 25.84 24.55 23.25 21.56 20.47 19.75 18.95 16.87 20.65 19.67 17.68 16.87 16.71
19.76 20.07 16.74 17.32 23.22 24.22 27.08 26.98 29.55 29.40 29.54 29.21 27.67 27.56 28.34 29.17 28.40 28.40 28.89 29.23 29.27 29.39 28.76 27.99 27.62 27.54 26.97 25.05 23.39 21.10 24.44 24.22 23.88 22.13 20.18 20.04 19.43 17.55 18.21 19.41 19.90 21.10 21.03 21.28
20.20 19.76 18.35 17.18 23.55 23.85 24.52 24.67 25.99 27.15 27.31 27.65 26.99 26.20 27.42 28.39 28.61 27.86 27.82 28.32 28.24 27.69 26.33 23.93 22.67 22.17 21.09 22.24 22.51 21.64 22.20 22.68 21.45 20.07 18.65 18.50 18.55 17.18 17.70 17.43 17.80 25.51 27.33 27.10
MSLP
1017.21 1017.48 1017.19 1016.64 1016.45 1015.96 1015.61 1015.36 1014.93 1014.22 1014.12 1014.54 1014.17 1013.05 1012.15 1011.50 1011.62 1012.20 1013.00 1013.93 1014.53 1016.09 1016.42 1016.97 1017.28 1017.50 1017.82 1018.21 1018.31 1018.91 1019.58 1020.32 1020.92 1021.64 1022.29 1022.89 1023.44 1024.17 1024.54 1024.86 1025.06 1025.20 1025.23 1025.15
1017.69 1017.27 1016.39 1016.34 1016.28 1015.88 1015.52 1015.49 1015.52 1015.77 1014.95 1014.60 1015.01 1014.03 1013.03 1011.95 1010.65 1010.95 1012.00 1013.41 1014.48 1015.78 1016.34 1017.00 1017.46 1017.86 1018.31 1018.52 1018.74 1019.21 1019.78 1020.37 1020.87 1021.23 1021.84 1022.53 1023.34 1024.54 1025.14 1025.37 1025.62 1025.56 1025.69 1025.70
1017.73 1016.15 1015.83 1015.89 1015.94 1015.56 1015.08 1015.35 1015.44 1015.82 1015.68 1014.87 1014.80 1013.95 1012.95 1011.62 1010.75 1010.99 1012.05 1013.08 1014.32 1015.30 1016.11 1016.59 1017.51 1018.17 1018.77 1018.88 1018.99 1019.39 1019.86 1020.29 1020.75 1021.19 1021.82 1022.77 1023.63 1024.49 1025.30 1025.89 1026.20 1026.01 1026.02 1026.30
1017.00 1016.08 1015.78 1015.45 1015.09 1015.36 1014.68 1014.33 1014.81 1015.63 1015.60 1015.07 1014.67 1014.44 1012.85 1012.67 1010.34 1010.89 1011.38 1012.64 1013.72 1014.75 1015.96 1016.59 1017.61 1018.35 1018.87 1019.19 1019.31 1019.58 1020.11 1020.49 1020.98 1021.41 1022.00 1022.57 1022.99 1024.17 1025.15 1026.04 1026.40 1026.55 1026.45 1026.58
1017.10 1016.35 1015.85 1015.43 1014.35 1014.23 1014.20 1013.91 1014.26 1014.73 1014.92 1014.86 1014.58 1014.69 1012.45 1012.11 1011.54 1010.71 1011.08 1012.12 1013.42 1014.31 1015.50 1016.67 1017.24 1018.23 1018.98 1019.31 1019.53 1019.89 1020.24 1020.76 1021.36 1021.92 1022.39 1022.71 1023.55 1024.30 1025.30 1025.79 1026.45 1026.75 1026.94 1026.85
1016.89 1015.94 1015.53 1014.59 1013.99 1014.06 1013.60 1013.79 1013.93 1014.37 1014.34 1013.57 1012.93 1013.10 1011.47 1010.98 1010.55 1010.96 1011.31 1012.08 1013.09 1014.14 1015.81 1016.76 1017.45 1018.37 1018.78 1019.63 1019.82 1019.91 1020.25 1020.89 1021.62 1022.18 1022.73 1022.95 1023.53 1024.56 1025.20 1025.80 1026.58 1026.93 1027.17 1027.31
1016.99 1015.59 1013.97 1013.81 1013.78 1013.79 1013.60 1014.07 1013.91 1013.93 1013.08 1012.21 1011.62 1012.30 1009.75 1009.34 1009.18 1009.87 1011.32 1012.30 1013.43 1014.26 1015.76 1017.01 1017.26 1018.41 1018.74 1019.83 1019.98 1020.14 1020.47 1021.24 1021.81 1022.54 1023.54 1023.88 1024.14 1024.90 1024.85 1025.49 1026.42 1026.85 1027.32 1027.84
1017.98 1015.88 1014.13 1013.43 1013.75 1013.51 1013.52 1013.67 1012.79 1012.37 1011.97 1011.83 1011.61 1010.91 1009.27 1008.80 1009.24 1009.69 1010.60 1012.29 1013.52 1014.72 1015.93 1016.92 1017.94 1017.91 1018.70 1019.95 1020.34 1020.34 1021.19 1021.51 1022.37 1022.50 1023.17 1024.62 1024.27 1024.58 1025.07 1025.49 1026.18 1026.41 1027.20 1027.68
1018.60 1016.22 1014.44 1013.89 1013.54 1014.25 1013.16 1013.04 1012.87 1012.78 1011.46 1010.68 1010.38 1009.90 1009.34 1009.51 1009.58 1009.58 1010.29 1011.81 1013.49 1014.70 1016.00 1017.21 1018.33 1017.99 1018.67 1019.87 1020.70 1020.75 1021.33 1022.10 1021.80 1023.40 1023.34 1024.32 1024.78 1024.44 1025.42 1025.88 1026.15 1026.71 1027.17 1027.47
1019.22 1017.29 1015.13 1014.06 1013.81 1013.38 1013.50 1012.72 1013.00 1012.91 1011.40 1010.53 1010.14 1009.84 1009.71 1009.79 1009.67 1009.66 1010.80 1011.93 1013.41 1014.67 1016.13 1017.37 1016.68 1019.21 1019.48 1020.08 1020.79 1021.34 1021.54 1022.13 1022.62 1023.51 1023.88 1024.34 1024.74 1024.81 1025.28 1026.18 1026.59 1026.82 1027.24 1027.65
1019.58 1018.53 1016.09 1014.90 1014.45 1013.54 1013.31 1012.86 1012.90 1012.83 1012.53 1011.03 1010.60 1010.50 1009.86 1009.35 1009.33 1009.75 1010.56 1012.01 1013.28 1014.58 1016.01 1017.23 1017.82 1018.72 1019.40 1020.72 1021.07 1021.74 1022.06 1022.28 1023.19 1023.86 1024.01 1024.51 1024.95 1024.99 1025.54 1026.33 1026.62 1027.10 1027.44 1027.83
1019.42 1018.24 1017.21 1015.71 1014.28 1013.68 1013.55 1013.20 1012.98 1012.78 1012.36 1011.57 1010.78 1010.18 1009.81 1009.19 1009.15 1009.68 1011.03 1012.26 1013.70 1014.99 1016.13 1017.36 1017.67 1019.03 1019.82 1020.09 1021.34 1022.18 1022.30 1023.09 1023.15 1023.98 1024.45 1024.81 1024.80 1025.43 1025.98 1026.30 1026.81 1027.37 1027.69 1028.19
1019.65 1018.46 1018.08 1016.30 1015.17 1014.10 1014.01 1013.78 1012.99 1012.57 1012.33 1011.69 1010.97 1010.16 1009.53 1009.31 1008.90 1009.62 1011.08 1012.80 1013.99 1015.15 1016.43 1017.49 1018.11 1019.16 1019.69 1020.34 1021.29 1022.09 1022.60 1022.96 1023.26 1024.09 1024.73 1024.95 1025.00 1025.54 1025.92 1026.34 1027.04 1027.47 1027.88 1028.32
1019.99 1018.64 1018.38 1017.80 1016.76 1016.02 1015.14 1014.48 1013.70 1013.02 1012.45 1011.82 1010.96 1010.24 1009.67 1009.62 1009.77 1010.40 1011.43 1012.78 1013.82 1014.74 1015.56 1016.99 1018.38 1019.20 1019.65 1020.00 1020.99 1021.94 1022.54 1022.94 1023.29 1024.00 1024.57 1024.70 1025.07 1025.55 1026.15 1026.52 1027.32 1027.61 1027.90 1028.31
1020.56 1019.65 1018.73 1017.74 1016.69 1015.86 1015.17 1014.57 1013.85 1013.37 1012.80 1012.31 1011.49 1010.71 1010.29 1010.38 1010.50 1011.01 1011.61 1012.78 1014.26 1015.24 1015.85 1016.61 1017.74 1018.56 1019.38 1020.30 1021.17 1021.91 1022.55 1022.64 1023.16 1023.94 1024.25 1024.73 1025.16 1025.75 1026.44 1027.07 1027.44 1027.67 1027.88 1028.26
1020.89 1020.10 1019.21 1017.88 1016.63 1015.99 1015.39 1014.66 1013.86 1013.27 1012.67 1012.10 1011.57 1011.41 1011.07 1010.90 1010.88 1011.49 1012.18 1013.04 1014.01 1014.74 1015.35 1016.13 1017.21 1018.02 1019.00 1019.89 1020.61 1021.30 1022.03 1022.62 1023.21 1023.54 1024.01 1024.80 1025.47 1025.99 1026.72 1027.20 1027.42 1027.58 1027.92 1028.22
1021.60 1021.14 1020.03 1018.65 1017.46 1016.53 1015.56 1014.25 1013.71 1012.97 1011.89 1011.51 1011.26 1011.03 1011.21 1011.30 1011.43 1011.65 1012.03 1012.65 1013.37 1014.25 1015.11 1015.97 1016.79 1017.74 1018.52 1019.29 1019.90 1020.70 1021.76 1022.36 1022.78 1023.36 1024.17 1024.94 1025.65 1026.27 1026.58 1026.93 1027.32 1027.59 1027.84 1028.06
1022.10 1021.78 1020.75 1019.54 1018.54 1016.98 1014.43 1013.65 1013.31 1012.98 1012.26 1011.50 1010.98 1010.83 1010.73 1010.90 1011.29 1011.59 1011.95 1012.38 1013.07 1013.72 1014.54 1015.49 1016.33 1017.26 1018.12 1018.88 1019.76 1020.64 1021.30 1021.90 1022.71 1023.58 1024.25 1024.98 1025.67 1026.05 1026.36 1026.82 1027.13 1027.35 1027.61 1027.84
1022.60 1022.35 1021.35 1020.52 1019.61 1016.94 1014.39 1013.79 1013.55 1013.23 1012.47 1012.02 1011.43 1011.25 1011.30 1011.45 1011.75 1011.85 1011.85 1012.26 1012.74 1013.31 1014.06 1014.95 1015.85 1016.83 1017.82 1018.62 1019.50 1020.37 1021.31 1022.04 1022.86 1023.53 1024.30 1024.75 1025.23 1025.71 1026.09 1026.52 1026.85 1027.08 1027.29 1027.43
1023.03 1022.74 1022.51 1021.04 1019.93 1017.34 1014.89 1014.01 1013.55 1013.44 1013.19 1012.62 1012.06 1011.53 1011.80 1012.08 1012.53 1012.32 1012.08 1012.42 1013.02 1013.58 1014.28 1015.01 1015.89 1016.72 1017.70 1018.69 1019.46 1020.38 1021.30 1022.09 1022.84 1023.36 1023.77 1024.19 1024.68 1025.15 1025.75 1026.16 1026.52 1026.65 1026.86 1027.12
1024.03 1023.46 1022.46 1021.35 1019.61 1016.84 1014.68 1014.12 1013.75 1013.98 1014.21 1013.11 1012.74 1012.03 1011.88 1011.96 1012.36 1012.59 1012.60 1012.91 1013.30 1013.92 1014.56 1015.31 1016.13 1016.96 1017.71 1018.65 1019.48 1020.51 1021.45 1022.03 1022.18 1022.95 1023.37 1023.92 1024.38 1024.88 1025.24 1025.72 1026.09 1026.45 1026.85 1027.03
1023.55 1022.82 1021.80 1020.56 1018.95 1016.51 1014.53 1014.21 1014.10 1014.03 1013.64 1013.34 1013.02 1012.62 1012.55 1012.35 1012.49 1012.68 1012.93 1013.47 1014.02 1014.46 1015.11 1015.88 1016.68 1017.55 1018.21 1018.91 1019.67 1020.69 1021.22 1021.36 1022.09 1022.78 1023.31 1023.85 1024.27 1024.63 1025.04 1025.54 1025.89 1026.18 1026.46 1026.76
1022.76 1021.22 1020.56 1019.44 1017.03 1015.10 1014.27 1013.96 1013.45 1013.56 1013.77 1013.48 1013.27 1013.13 1012.93 1012.90 1013.09 1013.36 1013.72 1014.10 1014.56 1014.93 1015.50 1016.14 1016.77 1017.76 1018.46 1018.95 1019.46 1020.28 1020.63 1021.42 1022.24 1023.01 1023.59 1023.91 1024.07 1024.45 1024.84 1025.35 1025.70 1026.31 1026.06 1026.44
1021.42 1020.22 1019.72 1018.72 1015.99 1014.89 1014.13 1013.72 1013.46 1013.46 1013.61 1013.48 1013.38 1013.29 1013.18 1013.22 1013.56 1013.91 1014.36 1014.82 1015.24 1015.66 1016.19 1016.74 1017.50 1018.14 1018.71 1019.05 1019.53 1019.98 1020.53 1021.26 1022.15 1022.85 1023.34 1023.68 1024.25 1024.35 1024.64 1024.88 1024.92 1025.37 1025.61 1025.88
1020.38 1019.71 1018.64 1017.54 1015.70 1014.66 1013.77 1013.41 1013.25 1013.32 1013.54 1013.76 1013.75 1013.69 1013.59 1013.63 1013.89 1014.17 1014.67 1015.23 1015.59 1016.01 1016.53 1016.97 1017.51 1018.11 1018.55 1019.07 1019.77 1020.22 1020.46 1021.13 1021.82 1022.25 1022.72 1023.27 1023.70 1024.30 1024.41 1024.39 1024.38 1024.47 1024.57 1024.75
1018.87 1017.63 1017.65 1016.36 1014.75 1014.53 1013.93 1013.59 1013.45 1013.71 1013.82 1013.90 1014.14 1014.17 1014.15 1014.15 1014.45 1014.84 1015.29 1015.57 1015.95 1016.50 1016.96 1017.48 1018.04 1018.54 1018.94 1019.38 1019.87 1020.08 1019.95 1020.71 1021.44 1022.12 1022.72 1022.78 1023.50 1024.11 1024.20 1024.17 1024.02 1023.75 1023.41 1023.50
Wind_Speed
5 3 7 11 12 15 9 6 11 6 6 3 8 12 15 17 15 16 14 14 14 11 9 8 6 8 8 6 8 12 13 12 10 9 8 6 5 6 6 6 7 7 6 7
5 11 15 9 12 13 16 14 8 3 0 6 4 16 11 17 19 20 20 15 16 12 13 10 9 7 5 5 7 10 11 11 8 7 6 5 7 6 6 6 6 6 7 6
7 15 9 10 13 13 13 13 6 1 2 2 4 6 6 14 10 14 14 13 14 15 13 13 11 8 7 7 9 10 10 11 8 10 10 9 9 7 5 5 4 5 6 7
8 7 11 13 10 6 13 10 14 5 4 3 2 4 2 13 10 15 16 16 18 16 13 13 12 9 8 6 8 10 10 10 10 10 10 11 8 8 4 4 4 5 6 7
8 11 12 14 15 10 8 7 11 8 9 4 4 4 1 8 9 11 18 19 17 17 17 13 14 11 8 7 8 10 11 10 10 10 9 7 7 8 7 6 8 6 5 7
15 8 5 12 5 9 5 2 5 5 3 8 11 7 5 7 11 8 12 16 18 18 14 13 12 11 11 7 8 10 13 11 8 7 8 11 13 10 9 8 6 5 4 5
14 6 9 7 3 5 2 4 4 7 7 6 17 8 13 9 8 13 11 14 16 16 15 12 16 12 11 9 9 10 13 12 10 10 7 6 10 9 10 9 6 7 4 3
4 11 2 2 5 6 7 5 5 4 5 4 10 9 6 3 3 10 16 15 15 15 13 12 11 13 13 9 8 12 11 14 10 13 10 5 8 6 5 7 6 6 5 5
5 7 4 4 7 1 5 6 1 6 3 3 5 2 3 1 5 5 17 17 16 14 14 13 11 11 14 11 8 11 14 11 14 10 9 7 7 8 7 7 7 5 6 6
4 9 6 1 5 5 7 2 2 1 5 1 2 3 1 5 7 7 16 17 15 14 13 12 14 9 9 9 8 8 11 13 12 10 9 8 8 8 8 6 7 7 6 6
7 7 6 3 1 5 2 3 4 4 3 3 3 2 2 6 9 15 16 16 16 15 13 11 12 12 12 8 9 8 8 11 10 8 9 9 8 8 8 6 6 6 6 6
5 4 3 7 6 7 4 5 6 3 3 4 3 2 2 4 1 7 11 14 13 12 12 10 12 12 12 13 9 9 10 9 9 8 8 8 9 8 7 7 6 6 6 5
5 3 4 11 6 4 1 7 5 4 2 3 0 3 1 4 4 9 15 13 14 14 13 11 11 12 11 12 11 9 8 9 9 8 8 8 8 7 7 7 6 5 6 5
8 4 3 5 3 2 4 9 9 3 2 4 2 2 3 3 6 9 13 14 14 14 16 14 11 11 11 11 10 11 9 9 9 8 7 7 7 7 6 6 6 6 6 5
5 4 4 5 7 5 5 6 5 3 3 2 4 5 5 1 4 6 11 14 13 13 15 14 13 11 10 12 11 9 9 9 9 9 7 7 6 6 6 6 6 5 5 5
7 5 4 5 6 3 7 9 7 6 3 6 6 1 5 3 5 6 12 15 15 15 15 16 15 16 17 16 15 12 10 9 9 8 7 6 6 6 6 6 6 5 5 5
3 5 4 5 6 5 7 9 12 5 6 7 8 6 5 0 4 6 9 12 14 15 15 15 16 15 13 13 12 12 12 10 8 7 7 7 6 6 6 5 5 6 6 4
4 3 3 4 4 1 7 2 3 6 7 8 5 5 7 6 4 5 5 9 11 14 15 14 13 12 12 11 12 11 9 9 7 7 7 7 7 6 6 6 6 5 4 5
5 3 4 1 2 7 4 4 2 1 4 4 6 6 3 4 4 4 6 7 10 11 12 12 12 12 12 13 10 11 9 8 8 8 9 8 7 7 6 6 6 5 5 5
4 3 1 4 1 2 4 3 3 2 4 6 7 3 7 7 4 3 3 5 6 7 8 9 10 9 10 7 10 11 10 10 10 10 9 7 7 7 6 6 7 4 4 5
2 2 5 5 4 8 4 3 4 6 5 5 5 5 3 2 0 2 3 4 5 6 8 9 11 12 12 10 11 10 9 11 8 7 7 7 6 6 7 6 3 3 4 4
5 4 5 1 1 5 3 0 0 3 4 4 4 4 4 4 3 5 4 5 6 7 8 9 9 8 7 8 11 10 12 7 7 7 6 6 6 5 5 6 3 3 5 4
3 7 3 8 7 4 4 4 1 4 3 2 2 3 2 2 2 2 2 5 5 7 7 6 10 9 8 11 11 12 8 8 7 6 6 6 5 5 5 5 5 3 3 4
6 4 4 4 4 7 8 7 6 6 5 3 2 2 2 1 4 2 4 4 5 5 6 5 8 8 8 7 7 5 8 6 7 7 7 5 6 5 4 4 4 4 4 4
6 6 4 6 11 9 10 8 6 6 5 5 3 2 3 3 4 4 4 6 6 6 5 6 7 7 8 7 5 4 7 8 7 6 5 6 5 5 4 5 5 6 6 8
7 9 7 8 8 3 5 3 3 5 5 8 5 2 3 3 6 4 4 4 5 6 4 3 3 5 5 7 8 7 7 8 7 6 4 4 4 4 4 4 4 13 16 14
Wind_Direction
271 228 243 240 232 241 284 221 272 206 85 84 305 312 203 191 174 163 160 161 151 167 144 134 119 101 97 85 117 130 128 131 133 129 125 115 107 95 80 70 56 50 61 68
311 258 248 260 280 246 238 255 242 276 158 117 326 300 315 212 187 170 162 169 161 156 154 149 144 109 95 107 117 127 130 136 140 134 122 119 120 96 93 79 66 62 60 63
258 258 288 201 283 253 240 242 213 311 230 87 305 252 297 236 189 166 165 160 156 164 157 149 141 134 130 124 131 130 136 139 126 124 117 112 108 111 102 81 77 64 69 61
264 310 271 253 254 259 264 218 220 197 179 236 170 278 255 299 197 175 165 168 163 162 157 152 139 136 148 129 124 119 115 117 119 128 130 136 138 133 114 124 101 80 73 74
257 307 318 309 248 228 254 187 216 190 185 174 155 253 158 183 282 206 178 174 166 159 157 155 140 137 134 134 132 130 123 115 121 133 146 125 117 113 126 122 111 100 85 84
259 247 217 239 285 245 270 231 275 194 196 234 185 165 199 190 215 213 190 171 163 150 149 138 122 133 126 132 131 134 129 121 105 92 127 130 129 145 134 130 125 118 97 84
318 262 234 202 253 286 141 221 227 215 187 227 165 180 244 209 155 190 197 168 152 142 143 146 141 141 130 146 139 136 124 111 110 105 94 119 134 158 141 132 136 128 107 94
259 323 266 216 207 211 201 220 256 220 180 184 151 209 264 169 151 144 178 177 156 152 149 154 165 153 128 136 140 127 126 117 114 115 111 159 128 139 124 134 135 117 126 120
307 274 316 236 194 210 262 213 124 311 256 172 169 275 280 131 209 224 177 157 166 161 157 155 162 134 145 150 153 142 132 130 125 134 124 125 126 111 118 108 110 119 120 119
298 298 273 318 25 224 226 198 55 77 292 86 56 337 256 207 223 125 159 161 163 152 150 151 126 140 128 129 142 132 136 140 138 145 139 136 130 122 112 110 123 116 113 109
262 220 282 346 332 307 248 250 256 158 250 330 120 252 199 197 196 175 170 165 162 152 149 147 147 142 122 125 123 128 129 131 135 134 133 132 138 121 117 127 118 117 117 123
255 274 264 227 263 151 255 256 209 145 273 261 247 215 294 264 160 155 153 140 133 136 140 150 131 140 150 132 132 138 136 145 131 132 133 137 121 124 125 120 119 125 120 121
343 261 6 340 356 360 218 338 268 287 87 234 6 309 358 279 84 147 145 143 142 141 144 146 138 160 152 149 148 156 155 150 133 135 146 143 133 130 127 129 130 131 133 135
295 294 158 190 206 191 297 318 323 253 81 312 264 345 347 14 94 127 144 154 163 161 156 150 163 163 154 145 154 161 156 155 145 146 154 143 140 139 140 131 143 145 147 142
18 294 327 263 258 229 251 261 297 290 236 155 299 23 329 293 171 127 141 145 155 162 163 169 169 165 155 163 163 162 165 154 152 156 150 150 140 134 136 148 155 150 146 163
338 295 311 293 280 274 273 258 244 239 243 250 285 186 287 334 90 123 146 155 162 174 175 172 167 164 167 167 170 167 162 161 162 154 147 145 146 142 159 164 163 154 169 185
318 315 317 281 338 331 298 223 234 236 210 179 224 190 178 293 183 183 163 169 170 175 176 173 171 170 167 169 162 163 171 162 156 146 152 154 159 171 173 168 168 180 191 187
293 308 269 290 353 308 238 204 253 221 257 262 278 176 179 177 204 205 191 176 175 174 177 175 170 166 165 158 167 165 154 153 147 155 159 169 171 176 177 181 188 193 189 206
196 286 292 122 244 286 316 9 12 312 298 357 248 148 152 115 80 283 204 192 192 185 179 177 169 163 164 167 156 141 145 146 158 170 185 179 176 184 182 188 196 201 202 215
231 250 199 346 114 269 263 319 337 291 318 355 333 198 153 154 142 247 241 184 178 169 164 155 157 151 157 150 147 152 160 163 181 186 190 179 182 184 185 195 207 202 197 219
328 326 234 261 269 288 263 299 313 81 262 338 328 314 143 127 128 152 144 143 160 153 150 135 148 159 169 157 154 153 145 189 187 174 174 179 181 182 195 199 182 183 206 218
190 163 219 70 325 286 169 280 93 222 306 308 331 1 81 86 30 15 68 129 141 135 124 142 143 145 139 141 146 156 187 179 167 175 173 174 180 194 190 192 183 188 183 200
299 193 214 180 223 246 219 261 289 150 214 288 311 326 14 132 57 43 119 134 146 148 143 142 151 148 157 165 173 177 189 166 167 150 172 188 191 194 184 180 193 206 175 213
246 186 216 35 283 238 249 253 235 200 212 224 245 294 310 194 166 153 139 152 146 146 148 134 133 151 168 175 172 177 154 146 150 171 189 191 194 199 200 201 187 192 198 214
209 142 198 262 276 267 274 233 255 241 212 212 204 224 224 158 192 186 184 177 171 165 162 160 166 173 183 163 155 157 159 158 176 184 181 196 196 198 210 217 205 217 218 205
186 202 174 222 240 222 267 312 338 214 220 219 214 228 226 202 185 169 202 199 172 177 158 143 146 138 168 159 174 186 168 166 161 185 194 183 188 204 212 220 262 244 245 241